Location: Kuppenheim
(48.8299°N, 8.2568°E)
Time: 08:15:50
(UTC+00:00)

Cosmos 1356 - Pass Details

Date: 20 June 2021
Orbit: 438 x 439 km, 81.1° (Epoch: 26 July)

Event Time Altitude Azimuth Distance (km) Brightness Sun altitude
Exits shadow 00:36:46 32° 236° (SW) 781 4.2 -16.1°
Maximum altitude 00:37:52 45° 286° (WNW) 612 4.0 -16.1°
Drops below altitude 10° 00:41:10 10° 0° (N) 1,563 7.3 -15.9°
Sets 00:43:18 0° 7° (N) 2,438 8.8 -15.8°
